SCP
0 0 0 0 0 0 0 0 0 0 0 0 0 0 0 0 0 0 0 0 0 0 0 0 0 0 0 0 0 0 1 1 1 1 1 1 1 1
0 0 0 0 0 0 0 0 0 0 0 0 0 0 0 0 0 0 0 0 0 0 0 0 0 0 0 0 0 0 0 1 1 1 1 1 1 1
0 0 0 0 0 0 0 0 0 0 0 0 0 0 0 0 0 0 0 0 0 0 0 0 0 0 0 0 0 0 0 1 1 1 1 1 1 1
0 0 0 0 0 0 0 0 0 0 0 0 0 0 0 0 0 0 0 0 0 0 0 0 0 0 0 0 0 0 1 1 1 1 1 1 1 1
0 0 0 0 0 0 0 0 0 0 0 0 0 0 0 0 0 0 0 0 0 0 0 0 0 0 0 0 0 0 1 1 1 1 1 1 1 1
0 0 0 0 0 0 0 0 0 0 0 0 0 0 0 0 0 0 0 0 0 0 0 0 0 0 0 0 0 0 0 1 1 1 1 0 0 0
0 0 0 0 0 0 0 0 0 0 0 0 0 0 0 0 0 0 0 0 0 0 0 0 0 0 0 0 1 0 0 0 0 0 0 0 0 0
0 0 0 0 0 0 0 0 0 0 0 0 0 0 0 0 0 0 0 0 0 0 0 0 0 0 0 0 1 1 0 0 0 0 0 0 0 0
0 0 0 0 0 0 0 0 0 0 0 0 0 0 0 0 0 0 0 0 0 0 0 0 0 0 0 0 0 0 0 0 0 0 0 0 0 0
0 0 0 0 0 0 0 0 0 0 0 0 0 0 0 0 0 0 0 0 0 0 0 0 0 0 0 0 0 0 0 0 0 0 0 0 0 0
0 0 0 0 0 0 0 0 0 0 0 0 0 0 0 0 0 0 0 0 0 0 0 0 0 0 0 0 0 0 0 0 0 0 0 0 0 0
0 0 0 0 0 0 0 0 0 0 0 0 0 0 0 0 0 0 0 0 0 0 0 0 0 0 0 0 0 0 0 0 0 0 0 0 0 0
0 0 0 0 0 0 0 0 0 0 0 0 0 0 0 0 0 0 0 0 0 0 0 0 0 0 0 0 0 0 0 0 0 0 0 0 0 0
0 0 0 0 0 0 0 0 0 0 0 0 0 0 0 0 0 0 0 0 0 0 0 0 0 0 0 0 0 0 0 0 0 0 0 0 0 0
0 0 0 0 0 0 0 0 0 0 0 0 0 0 0 0 0 0 0 0 0 0 0 0 0 0 0 0 0 0 0 0 0 0 0 0 0 0
0 0 0 0 0 0 0 0 0 0 0 0 0 0 0 0 0 0 0 0 0 0 0 0 0 0 0 0 0 0 0 0 0 0 0 0 0 0
0 0 0 0 0 0 0 0 0 0 0 0 0 0 0 0 0 0 0 0 0 0 0 0 0 0 0 0 0 0 0 0 0 0 0 0 0 0
0 0 0 0 0 0 0 0 0 0 0 0 0 0 0 0 0 0 0 0 0 0 0 0 0 0 0 0 0 0 0 0 0 0 0 0 0 0
0 0 0 0 0 0 0 0 0 0 0 0 0 0 0 0 0 0 0 0 0 0 0 0 0 0 0 0 0 0 0 0 0 0 0 0 0 0
0 0 0 0 0 0 0 1 0 0 1 0 0 0 0 0 0 0 0 0 0 0 0 0 0 0 0 0 0 0 0 0 0 0 0 0 0 0
0 0 0 0 0 0 0 0 0 1 1 1 1 0 0 0 0 0 0 0 0 0 0 0 0 0 0 0 0 0 0 0 0 0 0 0 0 0
0 0 0 0 0 0 0 0 0 0 1 1 1 0 0 0 0 0 0 0 0 0 0 0 0 0 0 0 0 0 0 0 0 0 0 0 0 0
0 0 0 0 0 0 0 0 0 0 0 1 0 0 0 0 0 0 0 0 0 0 0 0 0 0 0 0 0 0 0 0 0 0 0 0 0 0
Wind_Speed
3 3 2 2 2 2 2 2 2 1 1 1 1 1 1 2 3 2 2 5 6 6 7 8 9 9 10 10 10 10 11 11 10 10 9 8 8 8
2 3 3 2 2 2 2 2 2 2 1 1 1 1 1 2 3 2 2 4 4 4 4 5 6 8 8 9 9 10 10 10 10 9 9 8 8 8
1 3 3 2 2 2 2 2 2 2 2 1 1 1 2 2 1 1 0 1 1 2 3 3 4 5 6 7 8 8 9 9 10 9 9 8 8 7
3 3 2 2 2 2 2 2 1 1 2 1 1 1 1 1 1 1 1 1 0 2 2 2 2 3 4 5 6 7 7 8 8 9 9 9 8 8
2 3 2 2 2 1 1 1 1 1 1 1 1 1 1 1 1 2 2 1 1 1 1 1 2 2 2 3 3 4 5 6 7 8 8 8 8 8
2 2 2 2 2 2 1 2 2 2 1 1 1 1 1 1 1 1 2 2 2 1 1 1 2 2 1 2 2 2 3 4 6 7 7 8 8 9
2 2 3 5 6 4 3 2 3 2 1 1 1 1 1 2 1 1 1 2 2 1 1 1 1 1 1 2 1 1 2 3 5 6 7 7 8 9
1 1 2 3 4 4 4 4 3 2 1 1 1 1 2 1 1 1 1 2 3 3 1 2 1 1 2 1 1 1 1 2 4 5 6 7 8 9
1 1 1 2 2 2 2 1 1 1 1 1 0 2 2 2 1 2 2 1 2 3 2 3 2 2 2 1 2 2 1 3 4 5 6 7 7 9
0 0 1 1 1 2 1 1 0 1 2 1 1 2 1 1 1 1 2 2 2 2 1 2 2 3 3 1 3 2 2 3 4 5 6 6 7 8
1 0 1 1 2 3 2 1 1 1 1 1 2 2 2 2 1 2 2 2 2 3 1 1 2 3 3 2 2 3 4 4 5 6 7 7 7 7
1 0 1 2 2 2 1 0 2 2 1 1 2 3 3 2 2 1 1 1 2 2 2 1 2 2 3 3 2 2 2 4 5 6 7 7 7 3
1 1 1 3 3 1 1 0 1 2 2 1 1 2 1 1 1 1 1 1 1 2 2 1 1 2 2 3 3 2 2 2 2 3 5 7 7 4
1 1 2 4 2 1 1 1 2 2 1 1 1 1 1 1 1 1 1 2 2 3 3 1 1 2 2 3 4 3 3 2 2 2 2 5 6 7
1 2 2 2 1 1 2 3 2 1 0 1 1 1 1 1 1 1 2 2 3 3 2 1 1 2 2 3 3 3 3 3 2 2 2 2 2 3
1 1 1 1 1 1 1 2 1 1 1 1 1 2 1 1 1 1 1 2 2 3 3 2 2 2 3 4 3 3 3 3 3 3 3 3 3 3
3 1 1 1 1 1 1 1 0 0 1 1 1 1 2 2 2 1 1 1 2 3 3 3 2 2 3 3 3 3 3 3 3 3 3 3 3 3
3 2 1 1 1 1 1 0 0 1 1 1 1 1 1 2 2 2 1 1 2 3 3 2 2 3 3 3 2 3 3 3 3 3 3 3 4 4
2 2 2 2 1 1 1 0 0 1 1 1 1 1 1 2 2 2 2 2 2 3 3 2 2 1 3 5 4 2 3 4 3 3 3 3 4 5
2 2 2 2 1 1 1 0 0 1 1 1 1 1 1 1 2 2 2 2 3 3 3 2 2 2 3 5 5 4 5 4 3 4 4 4 4 6
2 2 1 1 1 1 1 0 0 0 1 1 1 1 1 1 2 2 2 4 3 2 3 3 3 5 3 2 3 3 3 4 4 4 4 4 5 4
2 2 2 1 1 1 1 1 1 0 0 0 1 1 1 1 2 2 2 2 2 2 3 3 3 3 2 3 5 5 5 4 5 7 7 6 5 5
2 2 2 2 2 1 1 1 1 0 0 0 1 1 1 2 2 2 2 2 2 3 3 3 3 3 3 3 4 5 6 6 4 5 5 8 11 12
Wind_Direction
39 50 46 42 45 42 41 70 93 61 10 36 42 47 62 85 76 65 83 74 67 57 46 40 35 31 29 29 28 27 27 28 30 37 40 40 39 36
57 58 46 43 41 36 25 25 66 103 75 21 48 51 52 70 80 65 80 88 68 59 46 39 36 32 30 30 31 30 29 29 30 31 32 33 31 28
70 80 69 58 44 31 35 35 43 73 88 351 25 45 57 46 51 39 60 94 79 75 50 34 32 31 30 30 33 31 28 27 27 26 23 21 18 17
51 64 63 66 54 40 43 42 53 73 96 63 343 19 29 45 27 4 16 56 58 93 62 23 15 24 33 34 32 29 28 27 26 23 18 13 10 6
60 60 55 60 49 46 47 37 44 61 78 85 347 348 349 13 21 357 359 344 344 70 83 4 353 351 26 24 26 26 25 22 20 18 13 8 3 358
74 65 56 60 47 35 46 28 48 53 48 49 4 336 342 339 38 350 341 341 330 339 16 4 335 335 330 344 359 14 17 15 14 13 10 5 359 356
88 86 87 85 76 60 54 37 41 41 30 29 349 353 342 353 340 307 321 315 319 320 335 304 292 291 274 285 287 326 358 4 5 4 1 358 355 351
123 120 121 104 100 89 76 63 63 60 41 31 4 340 316 321 323 339 333 351 320 315 341 305 298 279 264 246 211 213 318 341 344 344 343 343 342 340
74 108 85 93 112 128 99 61 35 50 155 162 271 290 308 315 329 333 328 318 275 286 337 307 316 308 293 274 242 230 279 318 322 323 326 330 332 331
356 127 138 135 131 121 108 88 214 233 229 206 196 250 279 298 304 295 281 302 306 314 345 296 311 308 308 290 256 266 302 311 319 322 321 323 325 324
212 232 144 126 94 92 91 4 326 301 267 202 209 241 290 308 333 6 343 339 312 304 328 322 306 310 304 285 284 296 309 305 306 311 313 314 318 320
184 122 98 114 99 89 113 10 310 301 320 329 311 300 290 296 301 207 221 276 301 305 318 348 315 336 317 304 312 304 297 293 296 301 307 308 311 315
176 176 150 137 130 112 62 277 275 297 318 313 303 307 315 313 299 252 207 195 230 261 284 342 311 314 282 297 305 301 304 302 300 300 298 302 305 303
192 164 151 149 157 190 242 272 301 324 320 317 317 314 317 312 307 308 289 262 229 240 259 236 259 280 291 295 294 301 303 294 296 305 301 305 299 301
145 130 145 168 184 234 266 285 304 296 251 264 277 281 273 278 312 330 319 306 298 287 290 274 252 272 267 273 282 291 304 302 304 307 304 299 291 299
171 149 154 201 219 236 268 271 243 224 211 233 253 274 302 323 320 302 298 303 305 303 302 298 289 278 276 273 272 284 292 293 308 306 302 299 302 300
156 151 167 172 210 235 240 244 232 263 264 257 273 301 308 307 298 300 298 302 299 298 305 306 300 292 276 271 278 278 285 289 289 302 314 306 294 293
147 166 196 200 208 212 206 242 274 269 273 263 247 258 275 282 288 297 295 288 287 291 296 300 317 325 325 308 264 279 291 289 291 295 295 296 292 293
150 192 194 194 203 201 184 176 273 295 311 327 288 287 293 297 297 297 304 304 294 292 293 297 304 310 306 300 293 276 285 289 292 291 283 280 283 288
188 198 194 190 183 169 153 143 12 351 347 337 337 328 318 318 326 317 301 300 300 300 303 303 297 280 267 273 278 288 291 285 288 288 285 283 281 287
199 197 189 176 167 158 157 162 168 265 307 329 332 329 329 325 315 314 312 312 305 299 303 297 289 297 289 303 300 297 298 300 298 295 294 298 301 301
181 177 179 169 162 164 170 177 200 252 306 321 322 326 327 326 309 303 309 313 309 304 302 299 309 321 322 305 298 299 302 304 300 295 289 285 288 289
179 169 169 164 159 160 167 184 197 215 241 298 314 319 320 317 312 311 307 304 306 311 314 311 313 313 304 297 296 298 302 307 307 308 298 293 287 285